Starlink 11668

operational
NORAD ID: 63557 Int'l Des: 2025-075 Owner: SPXS Country: US Constellation: starlink
LEOCIRCULAR

关于 Starlink 11668

正在加载描述...

实时位置

正在加载3D地球...

即将过境

高度历史

Altitude vs Time

uPlot chart will show altitude changes over time

两行轨道根数

1 63557U 25075K 25305.43316177 .00419112 00000-0 30874-2 0 9994
2 63557 42.9998 207.2079 0001810 293.6983 66.3695 15.70997726 33077
Epoch: Nov 1, 2025 • Age: 31 hours

当前状态

高度 351.8 km
速度 7.70 km/s
星下点 7.83°N, 88.53°W
发射日期 Apr 13, 2025
运行时间 0.5 years
类型 internet

技术详情

分类 Payload
质量 960.00 kg
干质量 910.00 kg
总质量 960.00 kg
长度 0.30 m
直径 4.10 m
跨度 29.00 m
形状 Box + pan
制造商 SPXS
平台类型 Starlink V2MD
阶段状态 In Orbit
所有者/国家 SPXS/US

大型星座

Loading constellations...